Location: Lane
(33.5226°N, 79.8788°W)
Time: 08:17:59
(UTC+00:00)

Vanguard 2 - Pass Details

Date: 05 October 2022
Orbit: 553 x 2932 km, 32.9° (Epoch: 08 December)

Event Time Altitude Azimuth Distance (km) Brightness Sun altitude
Rises 01:45:31 0° 279° (W) 6,726 13.3 -34.9°
Reaches altitude 10° 01:51:50 10° 265° (W) 5,762 12.6 -36.1°
Maximum altitude 02:02:44 20° 227° (SW) 4,742 11.6 -38.2°
Drops below altitude 10° 02:12:31 10° 187° (S) 5,044 11.5 -40.1°
Enters shadow 02:13:10 - 184° (S) 5,108 11.5 -40.2°
Sets 02:17:36 0° 171° (S) 5,670 - -41.0°
